[[{"header":{"parameterUnit":"m.s-1","parameterCategory":1,"la1":30.2991,"la2":30.254,"lo1":-89.0895,"lo2":-89.0444,"dy":0.0017,"dx":0.0017,"nx":28,"ny":28,"refTime":"2023-04-06T21:00:00:Z","depth":0,"parameterNumber":2,"parameterNumberName":"U-component_of_WINDS"},"data":[0,0,0,0,0,0,0,0,0,0,0,0,0,0,0,0,0,0,0,0,0,0,0,0,0,0,0,0,0,0,0,0,0,0,0,0,0,0,0,0,0,0,0,0,0,0,0,0,0,0,0,0,0,0,0,0,0,0,-2.5516,-2.5517,0,-2.556,-2.5561,-2.5561,-2.5533,-2.5532,-2.553,-2.5529,-2.5575,-2.5577,-2.558,0,0,0,0,0,0,0,0,0,0,0,0,0,-2.5408,-2.541,-2.5516,-2.5517,-2.5517,-2.556,-2.5561,-2.5561,-2.5533,-2.5532,-2.553,-2.5528,-2.5574,-2.5577,-2.558,0,0,0,0,0,0,0,0,0,0,0,0,0,-2.5454,-2.5411,-2.5516,-2.5508,-2.5508,-2.556,-2.5561,-2.5562,-2.5533,-2.5531,-2.5529,-2.5528,-2.5573,-2.5577,-2.558,-2.5643,0,0,-2.5591,-2.5593,0,0,0,0,0,0,0,0,-2.5452,-2.5458,-2.5509,-2.5509,-2.5509,-2.5539,-2.554,-2.5589,-2.5534,-2.5524,-2.5529,-2.5527,-2.5565,-2.5569,-2.5581,-2.5645,-2.5647,-2.5592,-2.5594,-2.5596,-2.5597,0,0,0,0,0,0,0,-2.5448,-2.5456,-2.5534,-2.551,-2.5509,-2.5503,-2.5507,-2.5549,-2.5555,-2.5525,-2.5523,-2.5528,-2.5564,-2.5578,-2.5582,-2.5647,-2.5592,-2.5595,-2.5597,-2.5599,-2.5764,-2.5767,0,0,0,0,0,0,-2.5446,-2.5454,-2.5532,-2.5535,-2.5475,-2.5506,-2.5511,-2.5531,-2.5554,-2.5556,-2.553,-2.5527,-2.5573,-2.5578,-2.5584,-2.5658,-2.5596,-2.5599,-2.5601,-2.5762,-2.5765,-2.5767,0,0,0,0,0,0,-2.5444,-2.5453,-2.553,-2.5494,-2.5503,-2.551,-2.5533,-2.5533,-2.5547,-2.5558,-2.5559,-2.5543,-2.5571,-2.5579,-2.5628,-2.5659,-2.5601,-2.5604,-2.576,-2.5763,-2.5766,-2.5807,0,0,0,0,0,0,-2.5441,-2.5452,-2.5476,-2.5494,-2.5505,-2.5574,-2.5535,-2.5535,-2.5553,-2.555,-2.5571,-2.5572,-2.557,-2.5623,-2.5632,-2.5663,-2.5607,-2.5757,-2.5761,-2.5765,-2.5803,-2.5811,-2.5819,0,0,0,0,0,-2.5437,-2.5485,-2.5477,-2.5487,-2.5534,-2.5575,-2.5582,-2.5578,-2.5556,-2.558,-2.5587,-2.5571,-2.5655,-2.5628,-2.5638,-2.5671,-2.5755,-2.576,-2.5765,-2.5799,-2.581,-2.5818,0,0,0,0,0,0,-2.547,-2.5488,-2.5478,-2.5535,-2.5554,-2.5571,-2.56,-2.5589,-2.5615,-2.5611,-2.5606,-2.5611,-2.5663,-2.5672,-2.5642,-2.5733,-2.5701,-2.5709,-2.5724,-2.5734,-2.5742,-2.5738,-2.561,0,0,0,0,0,-2.5484,-2.5516,-2.553,-2.5578,-2.5588,-2.5593,-2.561,-2.5606,-2.5626,-2.5634,-2.5645,-2.5665,-2.5695,-2.5716,-2.5744,-2.5805,-2.5809,-2.5833,-2.584,-2.5847,-2.5853,-2.5885,-2.5896,-2.5784,-2.5784,-2.5783,0,0,-2.5513,-2.5526,-2.5547,-2.5585,-2.5599,-2.5632,-2.5599,-2.5636,-2.566,-2.5639,-2.5686,-2.5696,-2.5718,-2.5773,-2.5798,-2.5782,-2.5885,-2.5853,-2.5858,-2.586,-2.5892,-2.5902,-2.5912,-2.5787,-2.5786,-2.5786,0,0,-2.5582,-2.5596,-2.5637,-2.5653,-2.5675,-2.5678,-2.5688,-2.5707,-2.5712,-2.576,-2.5745,-2.5774,-2.5827,-2.5844,-2.5859,-2.5936,-2.5923,-2.5946,-2.5986,-2.6018,-2.6027,-2.6035,-2.6062,-2.6072,-2.5952,-2.5952,-2.5952,0,-2.5615,-2.5664,-2.566,-2.5698,-2.5715,-2.5698,-2.574,-2.5756,-2.5786,-2.5799,-2.5781,-2.5848,-2.5862,-2.592,-2.5939,-2.5953,-2.5964,-2.5942,-2.6026,-2.6034,-2.6041,-2.6067,-2.6077,-2.5955,-2.5954,-2.5954,-2.5954,0,-2.5703,-2.5737,-2.5768,-2.5798,-2.5819,-2.5859,-2.5862,-2.5884,-2.5879,-2.5884,-2.5933,-2.5949,-2.5981,-2.5995,-2.599,-2.6054,-2.6043,-2.6026,-2.5994,-2.6054,-2.6078,-2.6088,-2.5958,-2.5957,-2.5957,-2.5956,0,0,-2.5792,-2.5821,-2.5832,-2.5846,-2.587,-2.5896,-2.5936,-2.5967,-2.5986,-2.6009,-2.6041,-2.6088,-2.6072,-2.6089,-2.6087,-2.6115,-2.6175,-2.6094,-2.6095,-2.6108,-2.6245,-2.6257,-2.6269,-2.6167,-2.6169,-2.617,-2.6243,0,-2.5862,-2.593,-2.5929,-2.5993,-2.6024,-2.601,-2.6044,-2.6063,-2.607,-2.6098,-2.6105,-2.6138,-2.6115,-2.6125,-2.6153,-2.6162,-2.6202,-2.6157,-2.6197,-2.6199,-2.6191,-2.6281,-2.6294,-2.6362,-2.6253,-2.6254,-2.6255,0,-2.5952,-2.5977,-2.6044,-2.6064,-2.6077,-2.6108,-2.6137,-2.6165,-2.6186,-2.6189,-2.6209,-2.6202,-2.6243,-2.6211,-2.6268,-2.6237,-2.6254,-2.6261,-2.6263,-2.6266,-2.623,-2.6285,-2.6383,-2.6393,-2.627,-2.6269,-2.6268,0,-2.601,-2.6061,-2.6107,-2.6119,-2.6144,-2.6166,-2.6178,-2.6197,-2.6216,-2.6242,-2.6254,-2.6285,-2.6301,-2.6325,-2.6327,-2.6304,-2.6384,-2.6352,-2.6387,-2.6387,-2.6403,-2.6402,-2.6504,-2.6416,-2.6416,-2.6416,-2.6416,0,-2.6087,-2.6128,-2.6133,-2.6162,-2.6208,-2.6207,-2.6252,-2.6262,-2.628,-2.631,-2.63,-2.6329,-2.633,-2.636,-2.6362,-2.6408,-2.6416,-2.642,-2.6419,-2.642,-2.6419,-2.6429,-2.6424,-2.6419,-2.6418,-2.6418,-2.6417,0,-2.6158,-2.6163,-2.6213,-2.6233,-2.6239,-2.6272,-2.6289,-2.6316,-2.6322,-2.6361,-2.637,-2.638,-2.6415,-2.6419,-2.646,-2.6461,-2.6517,-2.6512,-2.6509,-2.6508,-2.6542,-2.6538,-2.6654,-2.6669,-2.6572,-2.6573,-2.6574,0,-2.6206,-2.6237,-2.6261,-2.628,-2.6293,-2.6325,-2.6344,-2.6345,-2.6366,-2.6394,-2.6418,-2.6452,-2.6478,-2.6535,-2.6546,-2.6577,-2.6573,-2.6611,-2.6577,-2.6577,-2.6572,-2.657,-2.6573,-2.6617,-2.6618,-2.6619,-2.662,0,-2.6291,-2.6292,-2.6321,-2.635,-2.6374,-2.6398,-2.642,-2.6437,-2.644,-2.6465,-2.65,-2.6521,-2.6563,-2.6596,-2.6628,-2.664,-2.6631,-2.6631,-2.664,-2.664,-2.6636,-2.6638,-2.6525,-2.6627,-2.6627,-2.6626,-2.6626,-2.6625,-2.6351,-2.6379,-2.6399,-2.6432,-2.6449,-2.647,-2.6496,-2.6506,-2.6536,-2.6569,-2.6569,-2.6608,-2.6629,-2.667,-2.6685,-2.6716,-2.6703,-2.6717,-2.6721,-2.6724,-2.6727,-2.6633,-2.6722,-2.6722,-2.6721,-2.6721,-2.6721,0,-2.6435,-2.6448,-2.6478,-2.6509,-2.6535,-2.6524,-2.6548,-2.6571,-2.6605,-2.6626,-2.6653,-2.6694,-2.6727,-2.6741,-2.6774,-2.6796,-2.6792,-2.6804,-2.6802,-2.6805,-2.6737,-2.6724,-2.6806,-2.6806,-2.6806,-2.6806,-2.6806,-2.6806,-2.6481,-2.6527,-2.6531,-2.6585,-2.6598,-2.6635,-2.665,-2.667,-2.6687,-2.6733,-2.676,-2.6769,-2.6788,-2.6822,-2.6852,-2.6856,-2.6868,-2.6881,-2.6883,-2.6818,-2.681,-2.6801,-2.679,-2.6884,-2.6884,-2.6948,-2.6949,-2.6949]},{"header":{"parameterUnit":"m.s-1","parameterCategory":1,"la1":30.2991,"la2":30.254,"lo1":-89.0895,"lo2":-89.0444,"dy":0.0017,"dx":0.0017,"nx":28,"ny":28,"refTime":"2023-04-06T21:00:00:Z","depth":0,"parameterNumber":3,"parameterNumberName":"V-component_of_WINDS"},"data":[0,0,0,0,0,0,0,0,0,0,0,0,0,0,0,0,0,0,0,0,0,0,0,0,0,0,0,0,0,0,0,0,0,0,0,0,0,0,0,0,0,0,0,0,0,0,0,0,0,0,0,0,0,0,0,0,0,0,1.0531,1.0532,0,1.0619,1.062,1.0621,1.0651,1.0651,1.065,1.065,1.074,1.0743,1.0746,0,0,0,0,0,0,0,0,0,0,0,0,0,1.0393,1.0395,1.0531,1.0532,1.0533,1.0619,1.062,1.0621,1.0651,1.0651,1.065,1.065,1.0739,1.0743,1.0746,0,0,0,0,0,0,0,0,0,0,0,0,0,1.0464,1.0396,1.0531,1.0559,1.0562,1.0618,1.062,1.0621,1.0651,1.0651,1.065,1.065,1.0738,1.0742,1.0746,1.0782,0,0,1.0759,1.0761,0,0,0,0,0,0,0,0,1.046,1.0469,1.0553,1.0557,1.0561,1.0623,1.0604,1.0675,1.0651,1.0617,1.065,1.0649,1.0702,1.0709,1.0727,1.0786,1.079,1.0759,1.0762,1.0764,1.0765,0,0,0,0,0,0,0,1.0455,1.0466,1.0566,1.0555,1.0559,1.0568,1.0577,1.0618,1.0661,1.062,1.0623,1.0632,1.0704,1.0723,1.0729,1.0792,1.0759,1.0763,1.0765,1.0767,1.0888,1.0889,0,0,0,0,0,0,1.0445,1.0461,1.0563,1.0569,1.0508,1.0571,1.0581,1.0604,1.0661,1.0669,1.0633,1.0634,1.0716,1.0724,1.0732,1.078,1.0764,1.0767,1.077,1.0888,1.0888,1.0889,0,0,0,0,0,0,1.0442,1.0454,1.056,1.0516,1.053,1.0573,1.0599,1.0606,1.0625,1.0671,1.0679,1.0644,1.0716,1.0726,1.077,1.0783,1.0769,1.0773,1.0887,1.0888,1.0889,1.0873,0,0,0,0,0,0,1.0438,1.0453,1.0466,1.0516,1.0532,1.0595,1.0599,1.0608,1.0631,1.0633,1.0683,1.0691,1.0716,1.0764,1.0774,1.0789,1.0776,1.0886,1.0887,1.0889,1.0873,1.0874,1.0875,0,0,0,0,0,1.0433,1.0457,1.0466,1.0478,1.0549,1.0596,1.0605,1.0633,1.0632,1.0647,1.0677,1.0689,1.078,1.0768,1.078,1.0796,1.0885,1.0887,1.0888,1.0873,1.0874,1.0875,0,0,0,0,0,0,1.0408,1.0464,1.0475,1.0516,1.0551,1.0601,1.0619,1.0633,1.0669,1.0669,1.0704,1.0715,1.0756,1.078,1.0766,1.0835,1.0833,1.0838,1.0817,1.0819,1.082,1.0813,1.078,0,0,0,0,0,1.0407,1.0439,1.0487,1.0519,1.0536,1.0575,1.0596,1.0615,1.0653,1.0668,1.0701,1.0737,1.0775,1.0798,1.0834,1.0877,1.0889,1.0894,1.0895,1.0895,1.0898,1.0925,1.0928,1.0895,1.0895,1.0895,0,0,1.0405,1.0441,1.0459,1.0515,1.0544,1.0578,1.0587,1.0622,1.0648,1.0673,1.0717,1.0743,1.0786,1.083,1.0851,1.0851,1.0911,1.0897,1.0897,1.0901,1.0927,1.093,1.0933,1.0896,1.0896,1.0896,0,0,1.042,1.0449,1.048,1.051,1.0554,1.058,1.0588,1.0636,1.0655,1.0699,1.0719,1.0751,1.0814,1.0845,1.0868,1.0898,1.0912,1.0909,1.0914,1.0939,1.0942,1.0944,1.0957,1.096,1.0912,1.0912,1.0912,0,1.0413,1.0464,1.0494,1.0529,1.0554,1.0579,1.0612,1.0639,1.0693,1.0711,1.071,1.0791,1.0822,1.0875,1.0882,1.09,1.0911,1.0903,1.0939,1.0942,1.0945,1.0957,1.0961,1.0912,1.0912,1.0912,1.0912,0,1.0454,1.0489,1.0509,1.0561,1.0589,1.0622,1.0659,1.0683,1.0701,1.0727,1.0773,1.0812,1.0857,1.0871,1.0888,1.0927,1.0926,1.0932,1.0931,1.0947,1.0959,1.0964,1.0911,1.0911,1.0911,1.0911,0,0,1.0453,1.0524,1.0531,1.0556,1.0608,1.0637,1.0672,1.0717,1.0738,1.0776,1.0807,1.0861,1.0868,1.0895,1.0916,1.0938,1.0962,1.0942,1.0944,1.0945,1.101,1.1005,1.101,1.0972,1.0973,1.0973,1.1006,0,1.0476,1.054,1.0569,1.062,1.0655,1.0681,1.0712,1.0749,1.0775,1.0809,1.0838,1.0877,1.0882,1.0899,1.0922,1.0954,1.0975,1.0952,1.1003,1.1004,1.0991,1.1016,1.1011,1.104,1.1011,1.1012,1.1012,0,1.051,1.0548,1.0603,1.0653,1.0669,1.0696,1.0742,1.0773,1.0816,1.0834,1.0865,1.0886,1.0927,1.0923,1.098,1.0964,1.0987,1.1006,1.1008,1.1014,1.1009,1.1023,1.105,1.1054,1.102,1.1019,1.1019,0,1.0505,1.057,1.0612,1.0633,1.0693,1.0712,1.0738,1.078,1.0806,1.0846,1.0864,1.0907,1.0932,1.0966,1.0999,1.0993,1.1053,1.1052,1.1071,1.107,1.1082,1.108,1.1113,1.1095,1.1095,1.1095,1.1095,0,1.0528,1.056,1.0611,1.0637,1.0676,1.071,1.0748,1.0776,1.0814,1.0847,1.0872,1.0902,1.0944,1.098,1.1006,1.105,1.1061,1.1077,1.1084,1.1075,1.1073,1.1091,1.109,1.1096,1.1096,1.1096,1.1096,0,1.0529,1.0564,1.0612,1.0665,1.0679,1.0705,1.0752,1.0779,1.0808,1.0849,1.0861,1.0906,1.095,1.0987,1.1044,1.1062,1.1109,1.1116,1.1094,1.1098,1.1114,1.1113,1.1159,1.1168,1.1144,1.1144,1.1144,0,1.054,1.0566,1.0623,1.0647,1.0673,1.0711,1.0738,1.0774,1.0802,1.0854,1.0875,1.0921,1.096,1.103,1.1069,1.1114,1.1123,1.1136,1.113,1.1121,1.1125,1.1123,1.1127,1.1137,1.1137,1.1137,1.1137,0,1.0558,1.0575,1.0613,1.0658,1.069,1.0727,1.0765,1.0783,1.0827,1.0857,1.0903,1.0933,1.0993,1.1039,1.1089,1.1117,1.1135,1.1139,1.1146,1.1137,1.1124,1.1133,1.1097,1.1138,1.1138,1.1137,1.1137,1.1137,1.0566,1.0591,1.0636,1.0678,1.0711,1.0746,1.0775,1.0808,1.0846,1.0898,1.0918,1.0965,1.101,1.1079,1.1108,1.1146,1.1148,1.1158,1.116,1.1162,1.1162,1.1118,1.1155,1.1155,1.1155,1.1155,1.1155,0,1.0586,1.0616,1.0655,1.0708,1.0742,1.0756,1.0799,1.0827,1.0868,1.0909,1.0947,1.1001,1.1047,1.109,1.1139,1.1161,1.1171,1.1173,1.1172,1.1179,1.1156,1.1146,1.1165,1.1165,1.1165,1.1165,1.1165,1.1165,1.06,1.0644,1.0667,1.0729,1.0759,1.0806,1.083,1.0864,1.0896,1.0956,1.0994,1.1022,1.1064,1.1117,1.116,1.1172,1.1189,1.1189,1.1203,1.1181,1.118,1.1178,1.1169,1.1192,1.1192,1.1222,1.1222,1.1222]}]]